Tracking 28790 objects as of 19-Apr-2024
HD Live streaming from Space Station
objects crossing your sky now

FENGYUN 1C DEB

Track FENGYUN 1C DEB now!
10-day predictions


NORAD ID: 29805
Int'l Code: 1999-025CX
Perigee: 859.3 km
Apogee: 1,137.5 km
Inclination: 99.5 °
Period: 104.9 minutes
Semi major axis: 7369 km
RCS: 0.0153 m2 (small)
Launch date: May 10, 1999
Source: People's Republic of China (PRC)
Launch site: Taiyaun Space Center, China (TSC)

Note: This is SATELLITE DEBRIS
Your satellite tracking list
Your tracking list is empty




NASA's NSSDC Master Catalog

Two Line Element Set (TLE):
1 29805U 99025CX  24109.10368086  .00000244  00000-0  27878-3 0  9992
2 29805  99.5358 159.5155 0188766 358.7942   1.2727 13.72317910864225
Source of the keplerian elements: AFSPC